DEFRE LIEE-EDDC

Flight info

Callsign DEFRE
Flight time N/A
Altitude 43000
Route KOVAS DCT GIGGI DCT MADKA DCT MOULE DCT IRBAK DCT EVKIV DCT OTKEK DCT SOTOV T101 ANDEC/N0493F450 T101 BETOS/N0493F430 M726 MAH L132 AGNAV/N0494F450 DCT GAVLI T203 OSKAN OSKAN4B
Aircraft C750/M-SBDE3FGHRWXY/S

Departure

Time N/A
Airport Cagliari Elmas Airport (LIEE)

Arrival

Time 2026-04-28 14:47
Airport Dresden Airport (EDDC)
Time Latitude Longitude Altitude Speed Heading
2026-04-28 14:28 49.72530 12.73661 41264 ft 505 kts 14°
2026-04-28 14:28 49.75859 12.75347 41249 ft 505 kts 14°
2026-04-28 14:28 49.82510 12.78714 41204 ft 505 kts 14°
2026-04-28 14:29 49.89187 12.82112 41178 ft 499 kts 14°
2026-04-28 14:29 49.92381 12.83747 41012 ft 473 kts 14°
2026-04-28 14:29 49.95449 12.85313 40578 ft 454 kts 14°
2026-04-28 14:30 49.98371 12.86811 40036 ft 440 kts 14°
2026-04-28 14:30 50.01241 12.88276 39389 ft 428 kts 13°
2026-04-28 14:30 50.04041 12.89713 38668 ft 419 kts 13°
2026-04-28 14:30 50.06775 12.91112 37878 ft 411 kts 13°
2026-04-28 14:31 50.09450 12.92488 37067 ft 405 kts 12°
2026-04-28 14:31 50.12095 12.93847 36262 ft 401 kts 12°
2026-04-28 14:31 50.14701 12.95191 35687 ft 396 kts 12°
2026-04-28 14:31 50.17299 12.96528 35080 ft 393 kts 11°
2026-04-28 14:32 50.19878 12.97855 34317 ft 390 kts 11°
2026-04-28 14:32 50.22440 12.99167 33560 ft 386 kts 12°
2026-04-28 14:32 50.24962 13.00467 32866 ft 380 kts 12°
2026-04-28 14:32 50.27416 13.01741 32204 ft 373 kts 12°
2026-04-28 14:33 50.29859 13.03007 31507 ft 367 kts 12°
2026-04-28 14:33 50.32262 13.04262 30714 ft 366 kts 13°
2026-04-28 14:33 50.34654 13.05502 29108 ft 373 kts 13°
2026-04-28 14:33 50.37126 13.06769 26841 ft 393 kts 14°
2026-04-28 14:34 50.42291 13.09466 23343 ft 388 kts 14°
2026-04-28 14:34 50.44790 13.10770 22018 ft 377 kts 14°
2026-04-28 14:34 50.46408 13.11613 21101 ft 372 kts 15°
2026-04-28 14:35 50.49587 13.13272 19299 ft 361 kts 15°
2026-04-28 14:35 50.51834 13.14873 17868 ft 356 kts 27°
2026-04-28 14:35 50.54027 13.16267 16330 ft 343 kts
2026-04-28 14:35 50.56338 13.16898 14812 ft 335 kts
2026-04-28 14:36 50.58573 13.17554 13374 ft 329 kts
2026-04-28 14:36 50.60782 13.18197 12407 ft 324 kts
2026-04-28 14:36 50.62970 13.18841 11664 ft 311 kts
2026-04-28 14:36 50.65035 13.19448 11032 ft 299 kts
2026-04-28 14:37 50.67056 13.20042 10356 ft 290 kts
2026-04-28 14:37 50.69013 13.20618 9589 ft 287 kts
2026-04-28 14:37 50.70951 13.21244 8781 ft 283 kts 15°
2026-04-28 14:37 50.72706 13.22426 8332 ft 269 kts 28°
2026-04-28 14:38 50.74251 13.23952 7888 ft 258 kts 33°
2026-04-28 14:38 50.75684 13.25596 7380 ft 251 kts 37°
2026-04-28 14:38 50.77041 13.27255 6792 ft 248 kts 38°
2026-04-28 14:38 50.78368 13.28966 6374 ft 246 kts 39°
2026-04-28 14:39 50.79679 13.30717 6137 ft 248 kts 40°
2026-04-28 14:39 50.80998 13.32497 5886 ft 250 kts 40°
2026-04-28 14:39 50.82319 13.34288 5646 ft 251 kts 40°
2026-04-28 14:39 50.83643 13.36083 5396 ft 251 kts 40°
2026-04-28 14:40 50.84960 13.37868 5138 ft 249 kts 41°
2026-04-28 14:40 50.85398 13.38463 5050 ft 249 kts 41°
2026-04-28 14:40 50.87571 13.41417 4633 ft 247 kts 41°
2026-04-28 14:40 50.88882 13.43201 4384 ft 240 kts 41°
2026-04-28 14:41 50.90083 13.44832 4196 ft 224 kts 41°
2026-04-28 14:41 50.91262 13.46440 3980 ft 221 kts 41°
2026-04-28 14:41 50.92407 13.48004 3952 ft 214 kts 41°
2026-04-28 14:41 50.93530 13.49536 3950 ft 209 kts 41°
2026-04-28 14:42 50.94626 13.51033 3951 ft 208 kts 41°
2026-04-28 14:42 50.95725 13.52538 3957 ft 208 kts 41°
2026-04-28 14:42 50.96833 13.54051 3960 ft 213 kts 41°
2026-04-28 14:42 50.97979 13.55621 3981 ft 226 kts 41°
2026-04-28 14:43 50.99174 13.57260 3978 ft 222 kts 40°
2026-04-28 14:43 51.00346 13.58651 3954 ft 198 kts 28°
2026-04-28 14:43 51.01334 13.59926 3892 ft 175 kts 56°
2026-04-28 14:43 51.02151 13.61341 3452 ft 176 kts 38°
2026-04-28 14:44 51.03085 13.62588 2997 ft 177 kts 43°
2026-04-28 14:44 51.03984 13.63818 2878 ft 165 kts 42°
2026-04-28 14:44 51.04811 13.64952 2850 ft 147 kts 42°
2026-04-28 14:44 51.05562 13.65987 2628 ft 139 kts 43°
2026-04-28 14:45 51.06309 13.67006 2204 ft 146 kts 44°
2026-04-28 14:45 51.07079 13.68068 1949 ft 145 kts 42°
2026-04-28 14:45 51.07861 13.69136 1614 ft 148 kts 42°
2026-04-28 14:45 51.08615 13.70174 1388 ft 142 kts 43°
2026-04-28 14:46 51.09356 13.71199 1385 ft 137 kts 43°
2026-04-28 14:46 51.10068 13.72164 1407 ft 127 kts 42°
2026-04-28 14:46 51.10707 13.73070 1290 ft 127 kts 42°
2026-04-28 14:46 51.11414 13.74009 1137 ft 134 kts 43°
2026-04-28 14:47 51.12102 13.74960 910 ft 125 kts 43°
2026-04-28 14:47 51.12727 13.75825 747 ft 111 kts 42°
2026-04-28 14:47 51.13119 13.76368 732 ft 45 kts 41°
2026-04-28 14:47 51.13330 13.76657 727 ft 27 kts 43°
2026-04-28 14:48 51.13345 13.76784 727 ft 1 kts 130°
2026-04-28 14:48 51.13335 13.76803 727 ft 1 kts 130°
2026-04-28 14:48 51.13331 13.76812 727 ft 1 kts 130°
2026-04-28 14:48 51.13317 13.76838 728 ft 3 kts 130°
2026-04-28 14:49 51.13309 13.76852 728 ft 0 kts 130°
2026-04-28 14:49 51.13290 13.76890 730 ft 9 kts 129°
2026-04-28 14:49 51.13255 13.76953 732 ft 6 kts 141°
2026-04-28 14:49 51.13223 13.76969 734 ft 6 kts 186°
2026-04-28 14:50 51.13187 13.76936 735 ft 9 kts 220°
2026-04-28 14:50 51.13138 13.76870 736 ft 9 kts 221°
2026-04-28 14:50 51.13092 13.76807 737 ft 7 kts 221°
2026-04-28 14:50 51.13066 13.76806 738 ft 3 kts 128°
2026-04-28 14:51 51.13056 13.76825 738 ft 0 kts 130°
2026-04-28 14:51 51.13052 13.76833 738 ft 0 kts 130°
2026-04-28 14:51 51.13052 13.76834 738 ft 0 kts 130°